Weather in Shantou

China     23°27′21″N   116°46′26″E
temp.,
°C
wind,
m/s
gust,
m/s
humid.,
%
clouds,
%
prec.,
mm/h
press.,
hPa
HPBL,
m
26 february, fri
fri2623:00+21se127273 0.0 1010263
02:00+20se127871 0.1 1009255
05:00+20n118351 0.7 100999
08:00+20nnw128034 1.5 1011202
11:00+25wsw125641 0.2 1011608
14:00+29sw234620 0.4 10101473
17:00+25w146193 2.9 1011854
20:00+20e698295 3.7 1013451
27 february, sat
sat2723:00+18ene71181100 0.3 1015537
02:00+17ene5877100 0.3 1015408
05:00+17ene467597 0.1 1015367
08:00+17e456898 0.1 1017384
11:00+19e446098 0.0 1017594
14:00+21e445566 0.0 1015780
17:00+19e696419 0.0 1014455
20:00+17e697115 0.0 1017435
28 february, sun
sun2823:00+17ene697038 0.0 1018458
02:00+17ene476720 0.0 1018425
05:00+16ene46680 0.0 1017415
08:00+17ene47640 0.0 1019484
11:00+20e565216 0.0 1019735
14:00+22e67528 0.0 1016545
17:00+20ese58610 0.0 1015423
20:00+18e48681 0.0 1016465
1 march, mon
mon123:00+17e58710 0.0 1018463
02:00+17e47730 0.0 1017433
05:00+16ne23730 0.0 1017321
08:00+17e23721 0.0 1019436
11:00+20ese34640 0.0 1019640
14:00+23se21520 0.0 1015598
17:00+24se32490 0.0 1015519
20:00+21sse23590 0.0 1015253
2 march, tue
tue223:00+20sw127028 0.0 1016253
02:00+20wnw126545 0.0 1015205
05:00+20wnw1266100 0.0 1015157
08:00+21wnw236471 0.0 1017197
11:00+27n24440 0.0 10181078
14:00+23e10156010 0.0 1016568
17:00+19e1117670 0.0 1018580
20:00+17ene1015701 0.0 1021665